Zurück zum Katalog

PSLV R/B

AktivHEO
NORAD 41470·ROCKET BODY·🇮🇳 India

Gestartet Apr 28, 2016 von Satish Dhawan Space Centre

Loading…

Nächste Überflüge (nächste 24 Stunden)

TLE

AktuellSource: Space-Track

Epoche: Sep 13, 2026, 17:31 UTC

1 41470U 16027B   26256.73024916  .00009986  00000-0  15756-2 0  9993
2 41470  17.8109  91.4175 5878889  98.6534 328.3283  4.23513136153364

Verfolge PSLV R/B in Echtzeit mit AllMySat

Download on the App Store